Location: Neuvy Saint Sepulchre
(46.5953°N, 1.8122°E)
Time: 09:40:48
(UTC+02:00)

ISS - Pass Details

Date: 15 July 2021
Orbit: 419 x 421 km, 51.6° (Epoch: 04 August)

Event Time Altitude Azimuth Distance (km) Brightness Sun altitude
Rises 01:17:17 0° 274° (W) 2,368 0.2 -21.2°
Reaches altitude 10° 01:19:29 10° 283° (WNW) 1,504 -0.7 -21.3°
Maximum altitude 01:22:38 36° 352° (N) 692 -2.1 -21.4°
Drops below altitude 10° 01:25:48 10° 61° (ENE) 1,505 -0.7 -21.5°
Sets 01:28:00 0° 70° (ENE) 2,369 0.2 -21.5°
